Dewpoint
53 53 53 52 52 51 50 50 50 49 50 51 54 56 58 59 61 63 64 64 63 64 65 65 65 64 63 63 63 65 66 66 66 65 65 65 64 64 63 62 62 61 61
52 53 54 53 51 51 51 50 50 50 51 52 52 53 56 59 61 62 63 64 64 64 63 65 65 65 64 64 64 65 65 65 66 65 65 65 64 63 63 63 63 62 61
51 52 53 53 53 53 52 52 52 52 51 52 52 54 54 56 60 60 61 63 63 63 64 64 65 65 65 65 65 65 65 65 64 65 64 64 64 65 64 64 63 63 62
50 52 52 52 53 53 52 51 51 53 54 54 54 55 55 56 58 59 61 62 62 61 60 58 61 62 63 64 64 64 63 64 63 62 61 62 63 62 63 62 64 63 62
49 51 51 51 51 52 51 50 50 52 53 52 51 51 52 55 57 59 60 57 55 54 55 56 57 58 60 61 61 62 62 62 61 62 62 63 63 63 62 62 61 61 60
45 46 48 47 48 48 46 44 47 49 51 50 48 51 50 54 57 57 57 56 55 54 54 53 54 57 57 57 57 58 59 59 58 59 60 59 59 60 61 62 62 61 61
40 40 42 42 42 41 40 39 40 42 47 48 47 47 49 52 49 56 53 53 53 51 49 51 50 54 52 51 49 50 52 54 55 56 57 57 56 57 58 59 60 61 62
37 35 37 38 39 41 40 38 38 39 41 41 45 46 45 48 46 53 52 50 50 46 45 42 50 48 45 45 43 42 44 47 50 53 53 54 54 55 58 57 57 57 58
34 34 33 34 35 36 37 33 35 36 36 37 38 42 42 42 43 50 50 46 34 37 34 27 46 41 39 38 37 36 38 41 42 45 47 50 53 55 55 55 55 55 55
30 31 30 30 30 32 32 29 32 31 33 34 34 32 33 41 41 39 41 37 29 29 24 30 45 39 33 30 33 34 36 38 40 42 44 47 51 51 53 52 54 54 53
28 27 28 27 27 29 29 29 29 27 30 33 29 31 31 30 37 33 31 29 29 27 24 26 43 36 29 28 33 34 34 35 37 41 42 42 43 44 45 47 50 52 51
27 26 27 26 25 27 27 28 29 28 28 27 26 27 29 29 31 30 28 29 28 26 24 25 42 32 31 29 29 34 32 33 34 38 40 40 40 39 40 42 44 47 46
26 26 25 24 24 24 26 27 28 27 27 28 27 26 26 28 29 30 30 30 28 27 23 23 34 30 29 31 31 33 31 32 33 35 37 38 37 36 39 40 39 39 40
25 24 24 23 23 23 24 25 27 27 26 29 28 28 26 26 27 28 30 30 28 25 23 23 31 29 28 31 32 32 30 31 32 33 34 34 35 35 37 36 36 36 36
25 23 22 23 22 22 23 23 25 26 26 27 28 28 26 26 26 27 28 29 27 24 24 24 26 29 29 29 30 31 31 31 31 31 31 32 33 34 35 35 35 34 35
25 22 22 21 21 21 21 21 22 25 25 25 26 26 26 25 24 27 27 28 28 27 26 27 28 28 29 29 29 30 31 30 29 28 29 30 32 32 33 34 33 33 34
23 22 19 18 17 17 17 18 19 20 22 22 24 26 26 26 23 24 26 27 28 28 27 28 28 28 29 29 29 29 29 28 27 27 28 30 30 31 32 32 32 32 32
23 20 18 16 15 15 15 16 16 16 17 20 22 24 25 25 22 24 24 25 26 26 26 26 27 29 29 29 28 28 28 26 27 26 28 29 28 31 30 30 29 30 30
23 21 19 17 16 15 15 16 16 15 15 20 22 23 23 23 22 22 22 23 26 27 27 27 26 28 27 27 28 28 27 26 25 27 26 25 28 28 29 26 28 28 28
23 22 19 18 17 15 15 17 17 16 16 19 23 24 24 23 23 23 23 24 25 26 26 25 25 27 27 28 27 26 24 25 26 25 25 27 27 26 25 25 26 26 26
23 23 21 19 17 16 17 17 18 18 18 21 25 24 24 24 25 27 26 26 26 26 25 25 25 26 26 25 24 25 25 26 25 24 26 26 24 24 25 25 25 26 25
24 23 21 20 18 16 18 20 21 20 21 22 24 24 24 25 25 25 27 27 27 27 26 26 26 25 24 24 24 25 24 23 22 26 26 25 24 24 25 24 24 24 26
25 24 22 20 19 18 20 20 23 25 25 23 24 24 24 24 25 24 23 24 25 26 26 27 27 28 27 26 26 24 25 26 26 27 27 25 24 23 23 22 23 26 24
25 24 23 22 20 18 21 21 24 26 25 24 23 24 24 24 24 24 24 23 24 25 26 26 25 25 26 27 28 28 29 29 29 28 25 22 22 22 22 23 25 24 23
26 25 24 23 21 19 23 23 24 26 25 23 22 23 24 24 25 24 24 26 26 26 26 26 26 27 28 27 26 25 24 23 22 21 23 22 22 23 22 22 22 22 23
27 26 24 23 22 19 23 23 25 25 23 21 21 22 24 24 26 26 26 26 26 26 26 27 28 28 28 24 24 23 21 19 21 21 23 22 22 24 19 20 21 22 21
Wind_Speed
14 14 14 14 15 15 14 13 13 13 12 14 14 15 15 13 10 9 12 18 19 20 22 25 24 24 24 24 24 22 20 20 21 20 19 19 18 18 18 17 16 15 15
11 13 13 12 11 13 15 15 13 13 12 12 14 16 16 14 10 10 12 13 19 17 20 23 25 25 27 27 26 24 22 20 19 18 18 19 19 19 19 19 18 18 17
11 6 12 11 15 16 14 15 15 16 13 13 11 14 15 15 11 11 11 12 13 14 14 15 17 21 25 27 28 27 25 21 12 10 13 15 17 19 21 20 20 20 19
10 8 13 13 15 15 12 13 12 14 13 13 13 14 14 12 13 11 10 12 12 12 14 17 22 20 19 14 11 12 14 12 7 5 9 13 14 11 15 8 18 19 19
14 8 8 9 11 13 14 15 14 13 12 14 15 15 15 13 9 12 14 15 15 14 12 14 21 24 18 22 20 17 20 21 17 15 10 7 14 19 18 12 8 15 16
13 13 9 12 11 11 13 13 13 13 11 14 16 14 14 9 14 11 11 11 9 11 10 11 13 11 20 19 20 22 19 15 13 15 11 9 9 10 11 11 14 19 13
13 13 12 12 12 11 11 13 11 14 12 14 11 15 10 12 16 12 11 9 9 10 11 11 10 10 11 16 22 20 16 12 10 9 9 8 9 11 14 13 10 10 8
12 11 12 12 11 9 11 14 16 13 6 15 9 6 7 4 13 7 8 6 6 9 12 10 13 13 11 9 14 17 16 14 14 15 14 13 11 10 10 10 12 12 13
10 10 9 9 9 11 13 13 14 13 12 10 14 7 5 4 11 4 4 6 12 8 11 12 11 11 11 11 13 15 18 17 16 14 12 12 12 10 10 12 12 13 15
6 7 8 8 8 10 13 12 12 12 11 11 7 13 9 4 3 7 6 7 13 12 11 10 8 11 11 12 14 18 19 18 17 15 16 14 17 17 16 15 14 11 12
3 5 5 7 9 10 9 8 8 9 8 6 6 7 7 11 6 3 9 10 11 13 12 7 5 10 12 12 12 15 18 15 15 16 15 14 15 17 16 15 16 13 15
2 4 4 6 7 6 6 6 6 6 8 8 7 8 6 3 6 3 5 15 13 8 16 9 7 10 11 11 11 14 15 15 15 17 15 14 15 16 16 13 15 16 17
2 1 2 3 3 4 4 3 3 3 4 4 6 6 6 6 5 5 7 8 6 7 4 8 7 10 9 8 8 12 16 18 16 18 15 15 15 18 16 15 15 16 17
3 4 2 1 2 3 3 4 5 4 5 3 5 5 6 6 4 5 5 7 8 3 6 2 6 13 12 10 10 11 8 15 18 19 16 15 15 16 15 14 16 17 17
6 5 4 3 3 3 2 3 3 3 2 3 3 4 5 5 5 6 5 5 3 5 5 2 6 12 13 14 16 12 11 13 17 17 16 16 17 19 18 15 19 19 19
10 6 7 7 7 6 5 4 5 4 3 5 4 3 5 5 5 5 5 6 6 7 8 3 9 13 14 12 11 14 12 16 17 18 18 19 18 19 17 15 19 20 20
12 12 10 9 8 8 7 7 7 8 8 7 6 7 6 7 6 6 6 7 8 8 14 14 7 11 14 11 12 9 10 9 13 15 18 16 21 19 15 16 19 20 19
12 12 11 10 10 9 8 8 8 7 7 8 7 6 7 7 6 7 8 8 9 10 12 20 12 11 11 11 11 12 9 9 8 12 13 19 21 19 17 18 21 19 18
16 14 14 13 12 11 9 8 8 7 8 9 9 9 8 8 8 8 8 8 10 10 12 13 17 11 9 13 14 11 10 7 10 10 16 20 18 16 15 22 21 20 19
18 16 16 16 14 12 9 9 9 9 10 10 9 8 9 9 9 8 7 8 9 11 10 11 15 14 12 10 13 12 12 8 8 12 17 16 18 17 21 21 20 22 20
19 18 17 17 15 13 11 11 11 12 11 12 10 9 9 10 10 8 9 10 11 10 11 13 14 14 13 13 13 9 11 13 13 14 10 7 15 15 13 15 19 20 21
20 20 21 19 17 14 14 16 13 12 12 12 12 11 11 10 11 14 14 14 13 12 13 13 14 14 14 13 12 12 14 16 17 10 11 18 14 16 13 12 20 25 22
20 22 20 19 20 17 17 18 17 13 14 13 13 12 10 8 12 8 11 15 14 15 17 16 14 13 16 12 10 17 16 15 17 16 16 21 14 15 12 12 22 20 27
21 20 20 20 19 18 19 19 18 14 14 14 14 13 12 12 11 12 12 12 14 14 14 14 15 17 15 14 14 15 18 18 14 13 12 20 15 16 14 13 17 25 29
19 20 18 19 21 18 18 17 16 13 15 16 14 13 12 13 13 15 13 13 12 12 14 20 21 21 20 21 23 18 12 13 17 15 9 15 10 15 15 18 17 20 19
17 15 19 19 19 17 16 17 16 14 16 15 13 13 16 14 14 16 15 13 15 14 15 15 14 15 17 18 23 14 13 16 14 13 2 11 16 9 11 9 10 16 19
Wind_Direction
357 1 356 356 353 350 344 345 338 330 328 328 343 335 324 304 296 305 306 301 283 267 260 259 250 245 243 243 244 243 239 232 232 233 234 233 232 231 231 235 238 240 243
359 4 348 337 346 343 340 340 338 341 347 344 334 321 314 324 318 314 307 303 306 293 280 268 263 261 255 249 245 244 243 234 236 240 243 244 244 241 236 235 235 236 238
358 351 340 340 8 345 357 6 355 347 335 331 324 331 315 316 315 310 305 310 314 339 7 350 313 291 275 260 256 256 248 235 226 246 261 264 264 261 245 237 239 239 238
4 31 11 6 359 343 13 3 350 348 353 357 341 310 296 295 295 292 301 23 22 44 41 43 38 41 37 33 20 13 20 12 41 350 318 311 303 268 277 307 270 257 259
8 45 20 360 14 352 9 3 353 356 9 356 337 322 317 304 306 34 51 52 42 37 29 32 55 43 40 65 55 37 50 52 43 47 12 316 282 285 279 257 241 269 278
4 14 20 27 17 13 15 6 3 1 14 357 330 319 316 4 66 69 62 57 53 38 30 37 28 33 59 31 48 49 42 24 28 35 29 9 358 347 339 288 249 248 258
12 31 18 27 20 26 20 17 0 10 7 355 354 341 332 94 43 82 77 63 57 48 43 33 17 46 62 60 48 34 27 35 8 40 21 0 355 345 332 329 331 344 318
31 28 26 25 19 21 26 25 21 8 349 14 2 325 349 332 27 68 79 76 72 65 61 42 59 44 44 46 53 44 27 26 20 10 5 352 338 352 360 354 356 350 340
39 27 25 25 24 31 32 23 23 15 5 357 8 25 347 336 339 23 79 39 35 47 54 38 77 72 51 41 45 28 19 19 13 359 358 343 331 2 359 1 359 344 340
43 30 21 25 31 38 35 26 15 17 15 10 357 356 346 322 315 313 327 349 20 19 33 35 90 79 61 47 42 22 14 14 5 3 355 355 349 359 358 342 344 340 356
89 42 24 25 38 39 34 30 21 25 14 10 7 350 338 327 38 301 301 334 347 352 359 9 100 81 60 47 50 18 7 4 1 0 359 1 359 352 344 326 325 337 339
162 72 25 32 45 42 26 14 19 24 19 19 8 9 7 344 345 352 315 325 315 323 329 330 137 100 71 51 22 15 3 359 358 353 351 350 356 347 345 339 334 329 331
199 102 25 22 31 21 9 357 351 18 20 10 5 351 343 337 353 328 324 324 311 317 313 329 100 85 63 58 23 9 358 347 346 346 346 346 349 349 340 348 342 335 329
217 174 225 316 8 351 348 359 351 5 14 7 351 341 322 321 345 328 322 336 321 305 297 315 59 47 25 16 11 357 357 343 339 335 334 336 343 343 336 336 341 331 326
226 210 212 244 263 272 291 317 303 299 327 305 301 309 312 313 328 313 328 322 306 309 311 311 17 13 13 5 349 348 341 338 333 329 327 334 336 335 330 333 336 330 327
215 214 226 227 235 239 240 247 272 268 271 283 267 263 293 293 306 297 296 289 287 274 270 320 330 345 347 337 339 334 332 336 331 328 330 330 330 325 323 322 329 327 325
212 208 221 227 233 236 235 237 248 252 245 260 267 253 251 276 272 290 282 278 278 278 280 294 304 317 319 322 316 319 324 325 312 326 318 330 325 322 317 319 322 322 320
216 213 216 223 232 237 233 242 256 263 272 268 271 273 267 269 259 274 268 262 273 276 278 291 305 307 305 321 310 307 296 293 306 315 325 324 315 311 317 318 319 317 317
214 213 212 224 231 235 232 237 253 257 262 264 260 257 263 268 269 272 281 284 278 273 272 279 294 298 305 313 303 301 295 312 315 331 328 318 311 313 316 320 315 316 316
214 214 214 219 228 229 227 233 244 255 259 261 261 255 257 260 270 273 273 288 299 303 299 299 298 302 300 297 307 311 312 308 320 325 312 307 313 321 318 314 313 313 308
215 212 216 219 221 221 222 227 236 242 249 264 262 262 258 249 249 247 268 272 278 288 298 300 297 299 308 314 319 319 329 324 310 299 289 307 317 306 297 303 304 301 305
216 212 216 216 217 216 217 225 220 232 245 250 256 248 252 257 255 265 267 267 262 258 268 268 273 272 280 289 296 311 310 310 312 284 327 305 299 294 284 294 303 305 304
215 217 217 216 219 219 218 226 222 225 238 248 256 255 256 249 264 253 256 270 276 277 278 284 283 276 276 281 281 296 289 282 286 293 301 298 298 288 288 292 301 302 308
218 217 218 218 216 220 217 226 223 227 232 242 247 246 239 250 253 259 255 255 263 260 269 273 270 274 274 277 271 274 278 280 281 284 283 292 299 294 298 295 299 301 300
221 219 217 215 217 222 213 223 222 227 238 242 245 244 240 248 249 262 266 265 268 272 271 277 281 284 285 287 294 298 286 285 292 292 283 290 302 305 298 291 282 291 308
229 225 226 220 217 220 211 222 224 223 241 246 247 246 245 251 251 259 254 253 266 270 273 273 275 279 283 283 286 280 285 284 289 304 296 325 307 313 309 279 294 316 307